Wind_Speed
29 28 27 26 26 25 24 22 20 19 17 15 14 13 12 11 11 10 10 10 11 12 12 12 11 11 11 10 10 10 10 10 11 11 12 12 13 13 14 15 16 16 16 16
31 30 29 28 28 27 25 23 21 20 18 16 15 14 13 12 11 12 11 11 12 12 12 13 12 12 11 11 11 11 11 11 12 12 13 13 13 14 15 15 16 16 16 16
32 31 31 31 29 28 26 24 22 21 19 18 17 15 14 13 13 13 14 14 14 13 14 14 14 13 13 12 12 13 13 13 13 13 14 14 14 14 15 15 15 16 16 17
33 34 34 30 29 28 27 26 24 23 21 20 19 17 16 15 15 15 15 16 16 15 15 15 15 14 14 13 14 14 14 15 14 14 15 15 15 16 16 16 16 17 17 18
37 34 33 32 31 28 27 26 25 23 22 22 21 19 19 18 17 17 17 17 18 17 16 16 16 16 15 15 15 16 16 16 16 16 16 16 16 17 17 17 17 17 18 19
40 36 31 30 32 29 29 29 27 25 24 23 22 21 21 20 19 18 18 19 19 19 18 17 17 17 17 17 17 17 18 18 18 18 18 18 18 18 18 18 18 18 18 19
41 39 34 34 34 31 30 29 28 26 26 25 24 23 22 22 21 21 20 20 20 20 20 20 20 20 20 19 19 20 20 21 21 20 20 20 20 20 20 19 20 20 20 20
43 41 37 38 35 34 32 31 30 28 27 27 26 24 23 23 23 23 23 23 23 23 22 22 22 22 22 22 22 22 22 23 22 22 22 22 22 22 21 22 22 22 22 22
45 44 42 40 37 35 34 33 32 31 30 29 28 27 26 25 25 24 25 25 25 25 24 24 24 24 24 24 24 24 24 24 24 24 24 23 23 23 23 23 24 24 24 24
46 45 44 42 39 37 36 35 34 33 32 31 30 29 28 28 27 27 26 27 27 27 27 26 26 26 26 26 26 26 26 25 25 25 25 24 24 24 25 25 25 25 26 26
45 45 44 43 42 40 39 38 37 36 35 34 33 31 30 30 29 29 29 29 29 30 29 29 29 28 28 28 28 28 27 27 27 27 27 26 26 26 26 27 27 27 27 28
43 44 44 43 43 42 41 40 39 38 38 37 35 34 34 33 32 31 31 31 31 31 31 31 31 30 31 31 31 29 28 28 28 28 28 28 28 28 28 28 28 28 28 28
42 42 42 42 42 43 43 42 42 40 39 38 37 36 35 34 34 33 32 32 32 32 33 33 33 32 33 33 32 30 30 30 30 30 29 29 29 29 29 29 28 28 28 28
41 41 41 42 42 42 42 42 42 42 41 40 39 38 36 35 35 34 34 34 34 34 34 34 34 33 33 32 31 31 31 31 31 31 30 30 30 30 29 29 29 29 29 29
39 40 40 40 41 42 42 41 41 41 41 40 40 39 37 36 35 35 35 34 34 35 34 34 33 33 32 32 32 31 31 31 31 31 31 31 30 30 29 29 29 29 30 30
38 38 39 39 39 40 40 40 40 40 40 39 39 38 37 36 35 35 34 34 33 34 34 34 33 33 33 32 32 32 32 32 32 32 31 31 31 30 30 30 30 30 29 29
37 36 36 37 37 38 38 38 38 37 36 36 36 36 36 35 34 34 34 33 33 32 32 33 32 32 31 32 33 32 32 32 32 32 31 31 30 30 30 29 29 29 29 28
34 34 34 34 34 35 36 36 36 36 35 35 35 35 35 34 33 33 33 33 33 32 31 31 31 31 31 32 32 32 32 32 31 31 30 30 29 29 29 28 28 28 28 27
32 33 33 33 33 33 33 34 34 34 34 34 34 34 34 34 34 33 33 33 32 32 32 32 32 31 31 32 32 32 31 31 31 30 30 29 29 29 29 28 28 27 27 27
29 30 31 31 32 32 32 32 32 32 32 33 33 33 33 33 33 33 32 32 32 32 32 32 32 32 32 32 31 31 31 30 30 29 29 28 28 28 28 27 27 27 26 26
26 27 28 29 30 30 30 31 31 32 32 31 32 32 32 32 31 31 31 31 31 31 31 31 31 31 31 31 31 30 30 30 30 28 28 28 28 28 27 27 27 27 27 27
23 23 25 26 27 27 28 29 29 30 30 31 31 30 29 29 29 29 29 29 30 29 29 30 30 30 30 30 29 29 29 30 29 28 27 27 27 27 27 27 27 27 27 27
21 21 21 23 23 24 25 26 26 26 27 27 27 27 26 26 27 27 28 28 28 28 28 28 28 28 28 28 28 28 28 28 27 27 26 27 27 27 27 27 27 27 28 28
17 18 18 19 20 21 22 23 24 24 24 23 23 24 24 25 25 25 26 26 26 26 26 27 27 27 27 27 27 27 27 27 27 27 27 27 27 27 27 27 27 28 28 28
16 16 16 17 18 19 19 19 20 20 20 21 21 21 22 22 23 23 23 23 24 24 24 24 24 24 25 25 26 25 25 26 26 26 26 26 26 27 27 27 27 28 28 29
13 13 14 16 17 17 17 17 16 16 17 18 19 19 20 20 21 22 22 22 22 22 22 23 23 23 24 24 24 24 24 24 24 25 25 25 26 26 27 27 28 28 29 29
11 11 12 13 14 14 15 15 15 15 15 16 17 17 18 18 19 19 19 20 20 20 20 21 22 22 22 23 23 23 24 24 24 25 25 26 26 27 27 27 28 28 28 28
Wind_Direction
231 235 241 243 243 243 245 247 249 255 259 261 267 272 272 268 270 276 282 287 293 297 299 298 303 306 304 302 302 303 304 303 298 295 293 293 293 291 287 284 283 283 279 276
234 236 239 241 241 243 246 248 249 252 256 259 265 269 267 266 268 272 279 286 292 296 297 297 300 303 302 298 297 300 302 300 297 294 294 294 294 291 291 289 285 282 278 276
234 235 236 238 239 243 246 248 251 253 255 256 261 264 264 263 265 271 277 284 289 293 295 295 298 301 301 297 294 294 296 298 298 296 295 293 293 292 292 291 287 281 278 277
231 234 235 238 238 240 243 245 248 250 252 254 256 260 262 263 265 269 274 280 284 289 291 292 295 298 298 298 297 294 295 297 297 295 294 293 292 292 292 290 288 285 280 279
232 235 238 237 236 235 239 243 246 248 250 251 253 257 260 262 265 267 271 275 280 284 288 292 294 295 295 295 297 296 296 296 295 294 294 293 293 292 293 292 290 287 282 282
233 232 233 239 236 233 236 241 242 244 246 249 251 254 257 260 262 265 268 271 275 280 283 287 290 293 294 296 296 295 296 295 294 292 292 291 291 292 291 292 292 290 286 285
234 235 234 236 237 233 236 240 241 242 245 247 249 253 257 259 261 263 266 268 271 275 279 282 287 291 293 293 294 293 296 295 293 292 291 290 289 289 289 289 290 289 287 285
234 235 236 238 238 236 237 240 242 242 244 246 248 252 256 259 261 262 264 266 269 272 275 279 283 287 290 291 292 292 293 294 290 289 289 289 288 286 286 286 288 288 288 287
234 235 236 238 239 239 240 242 244 244 245 247 250 253 256 259 260 262 263 265 267 270 272 276 280 282 286 287 288 290 292 293 290 287 288 288 287 285 284 285 286 287 288 286
236 237 239 240 240 241 242 243 244 245 247 248 250 252 255 258 259 261 263 264 266 269 271 275 279 281 283 286 286 286 288 290 290 288 287 286 286 286 286 286 285 285 286 286
235 237 239 239 240 241 242 244 246 247 249 250 252 253 255 257 258 260 262 263 265 267 270 273 276 278 280 283 285 285 284 285 287 288 286 285 286 285 286 286 286 285 285 285
234 235 237 239 240 241 242 244 246 248 249 251 253 255 256 257 259 259 260 261 264 266 267 270 272 275 278 281 281 281 281 283 285 286 286 285 285 285 284 285 285 284 284 284
234 235 237 238 240 242 243 244 246 248 250 252 255 256 258 259 259 259 261 263 264 265 267 268 270 273 276 279 277 277 278 281 284 286 285 285 285 285 284 283 282 283 285 285
235 235 236 238 239 242 244 245 246 247 249 252 254 256 258 258 259 260 261 263 263 264 266 269 270 271 275 275 274 275 278 281 283 284 284 284 284 284 284 283 282 281 282 283
234 235 236 238 239 241 243 244 246 247 248 250 252 254 256 258 259 260 260 261 262 263 266 268 269 270 273 273 272 274 277 280 281 283 283 284 284 284 284 283 281 282 282 282
233 235 236 237 239 240 241 243 244 245 246 248 249 250 252 255 257 258 258 259 261 262 264 266 267 270 271 272 273 275 277 278 280 282 282 283 283 282 282 282 281 281 282 281
232 233 234 236 238 238 239 241 243 243 245 246 247 248 250 251 253 254 255 257 259 262 263 264 266 268 271 272 274 275 275 277 279 280 281 281 282 281 281 282 282 281 282 282
232 232 233 236 236 237 238 239 240 242 243 243 244 246 247 247 249 250 252 254 258 261 263 265 266 268 271 272 272 273 274 276 278 279 280 280 281 281 281 282 282 282 282 282
232 231 232 234 235 235 236 237 239 240 241 241 243 245 245 246 247 249 251 253 256 259 262 265 267 269 271 271 271 272 275 277 278 279 280 280 280 280 280 280 281 281 282 282
230 230 231 232 233 234 234 236 237 237 238 239 241 242 244 245 247 249 251 252 255 258 261 263 265 267 268 269 270 272 274 276 277 278 278 278 279 279 279 279 279 280 282 282
227 228 229 230 231 232 232 233 234 236 237 237 240 242 243 244 246 248 251 253 256 258 260 262 265 267 268 269 270 271 273 275 276 276 276 277 278 278 278 278 279 280 282 283
223 225 226 226 227 228 229 229 230 233 235 237 238 240 241 244 247 250 252 254 256 258 259 262 263 265 267 268 270 271 273 274 274 274 275 276 277 277 278 279 280 281 281 283
220 223 224 224 225 225 226 227 228 230 231 233 234 237 240 243 247 250 252 254 255 256 259 261 262 264 266 268 270 272 273 274 273 274 275 277 277 277 278 280 281 282 283 284
218 220 219 217 217 218 220 223 225 226 229 232 234 236 239 243 245 247 250 253 255 257 259 260 262 264 266 268 270 271 272 272 273 274 276 276 276 277 279 280 282 283 284 284
209 209 209 209 212 216 220 221 220 225 230 232 235 238 240 242 244 246 250 253 255 257 259 262 263 264 266 268 270 272 273 273 274 276 277 277 278 279 281 282 283 284 284 285
203 206 208 209 210 213 215 217 222 228 232 234 237 239 242 244 246 248 250 253 256 258 260 262 263 265 267 269 271 272 273 275 276 276 277 278 279 280 281 282 282 284 285 285
195 199 202 204 206 210 213 217 223 228 233 236 240 242 244 248 250 250 252 255 257 260 264 266 267 267 269 271 272 273 275 277 279 279 280 281 282 282 282 283 284 285 285 285
Height
5865 5868 5870 5874 5876 5879 5881 5885 5888 5890 5890 5891 5890 5890 5890 5889 5889 5889 5888 5887 5886 5885 5883 5882 5880 5879 5877 5876 5874 5873 5872 5871 5869 5868 5867 5866 5865 5864 5863 5862 5861 5860 5858 5858
5858 5861 5864 5867 5870 5873 5876 5878 5881 5883 5885 5886 5885 5886 5886 5886 5886 5885 5885 5884 5883 5882 5881 5879 5878 5876 5875 5873 5872 5871 5869 5868 5867 5865 5864 5863 5862 5861 5859 5858 5857 5855 5855 5854
5851 5854 5857 5860 5864 5867 5870 5873 5875 5878 5880 5880 5881 5881 5882 5882 5882 5881 5881 5881 5880 5879 5878 5876 5875 5873 5872 5870 5869 5868 5867 5865 5864 5862 5861 5860 5858 5857 5856 5854 5853 5852 5851 5850
5844 5847 5850 5857 5858 5861 5864 5866 5869 5871 5873 5875 5876 5876 5877 5877 5877 5877 5877 5877 5876 5875 5874 5873 5872 5870 5869 5867 5866 5865 5864 5862 5861 5859 5858 5856 5855 5854 5852 5850 5849 5848 5847 5846
5835 5839 5843 5848 5851 5855 5857 5860 5863 5865 5867 5868 5870 5871 5872 5872 5872 5872 5872 5872 5872 5871 5870 5869 5868 5867 5865 5864 5863 5861 5860 5858 5857 5855 5854 5852 5851 5850 5848 5846 5845 5843 5842 5841
5826 5832 5837 5842 5843 5848 5852 5853 5856 5858 5860 5862 5864 5866 5866 5866 5867 5867 5867 5867 5867 5866 5866 5865 5864 5863 5862 5860 5859 5857 5856 5854 5853 5851 5850 5848 5847 5845 5843 5842 5841 5839 5838 5837
5817 5822 5829 5832 5835 5841 5845 5847 5849 5851 5853 5855 5857 5859 5860 5860 5861 5861 5861 5862 5862 5861 5861 5860 5859 5858 5857 5856 5854 5853 5852 5850 5848 5847 5845 5844 5842 5841 5839 5837 5836 5835 5833 5832
5808 5813 5821 5822 5827 5832 5836 5838 5841 5843 5846 5848 5850 5851 5852 5853 5854 5855 5855 5855 5856 5855 5855 5855 5854 5853 5852 5851 5849 5847 5846 5844 5843 5842 5840 5838 5837 5835 5834 5832 5831 5830 5828 5826
5799 5805 5809 5813 5818 5822 5826 5829 5832 5835 5838 5840 5842 5844 5845 5846 5847 5848 5848 5849 5849 5849 5849 5848 5848 5847 5846 5845 5843 5842 5841 5839 5837 5836 5834 5832 5831 5829 5828 5827 5825 5824 5822 5821
5788 5793 5799 5803 5808 5813 5817 5820 5823 5826 5829 5832 5834 5836 5837 5838 5839 5840 5841 5841 5842 5842 5842 5842 5841 5840 5840 5838 5837 5836 5834 5833 5831 5830 5828 5826 5825 5823 5822 5820 5819 5817 5816 5814
5778 5783 5788 5793 5798 5802 5807 5810 5814 5817 5820 5822 5825 5827 5829 5830 5831 5832 5833 5834 5834 5834 5834 5834 5834 5833 5833 5832 5830 5829 5828 5826 5825 5824 5822 5820 5818 5816 5815 5813 5812 5810 5809 5807
5767 5772 5778 5782 5787 5792 5796 5800 5804 5807 5810 5813 5815 5818 5819 5821 5822 5823 5824 5825 5826 5826 5826 5826 5825 5825 5825 5824 5823 5822 5820 5819 5818 5816 5815 5813 5811 5809 5807 5806 5804 5803 5801 5800
5757 5762 5767 5772 5776 5781 5785 5789 5793 5797 5800 5803 5806 5808 5810 5812 5813 5814 5815 5816 5817 5817 5817 5817 5817 5817 5816 5815 5815 5814 5813 5812 5810 5809 5807 5805 5804 5802 5800 5798 5797 5795 5793 5791
5746 5752 5757 5761 5766 5770 5774 5778 5782 5786 5790 5793 5795 5798 5800 5802 5803 5805 5806 5807 5807 5807 5808 5808 5808 5807 5807 5806 5806 5805 5805 5803 5802 5801 5799 5797 5795 5794 5792 5790 5789 5787 5785 5783
5736 5741 5746 5750 5755 5759 5763 5767 5771 5775 5779 5782 5785 5787 5789 5792 5793 5795 5796 5797 5798 5798 5799 5799 5799 5798 5798 5798 5797 5796 5796 5795 5793 5792 5790 5789 5787 5785 5784 5782 5780 5778 5777 5775
5726 5730 5735 5739 5744 5748 5752 5756 5760 5764 5767 5771 5774 5776 5779 5781 5783 5784 5786 5787 5788 5789 5789 5789 5789 5789 5789 5788 5788 5787 5787 5786 5784 5783 5781 5780 5778 5777 5775 5773 5772 5770 5769 5767
5716 5720 5725 5729 5733 5737 5741 5745 5749 5753 5756 5760 5763 5765 5768 5770 5773 5775 5776 5777 5778 5779 5780 5780 5780 5780 5780 5779 5779 5778 5777 5776 5775 5774 5773 5771 5770 5768 5766 5765 5763 5762 5760 5759
5706 5711 5715 5719 5723 5727 5731 5734 5738 5742 5746 5749 5752 5755 5758 5760 5763 5765 5767 5768 5769 5770 5770 5771 5771 5771 5771 5770 5770 5769 5768 5767 5766 5765 5764 5762 5761 5759 5758 5756 5755 5753 5751 5750
5697 5701 5706 5709 5713 5717 5721 5725 5728 5732 5736 5739 5742 5745 5748 5751 5753 5755 5757 5759 5760 5761 5762 5762 5762 5762 5762 5761 5760 5760 5759 5758 5757 5756 5755 5753 5752 5751 5749 5748 5747 5745 5744 5742
5689 5693 5697 5700 5704 5708 5712 5715 5719 5723 5726 5730 5733 5736 5739 5741 5744 5746 5748 5749 5751 5752 5752 5753 5753 5752 5752 5752 5751 5751 5750 5749 5748 5747 5746 5745 5743 5742 5741 5740 5738 5737 5735 5734
5682 5686 5689 5693 5696 5699 5703 5707 5710 5714 5717 5721 5724 5727 5730 5732 5734 5737 5738 5740 5741 5742 5743 5743 5744 5743 5743 5743 5742 5742 5741 5740 5739 5738 5737 5736 5735 5734 5733 5732 5730 5729 5727 5726
5676 5679 5683 5685 5689 5692 5695 5699 5702 5706 5709 5712 5716 5719 5721 5724 5726 5728 5729 5731 5732 5733 5734 5734 5735 5735 5734 5734 5734 5733 5733 5732 5731 5730 5729 5728 5727 5726 5724 5723 5722 5720 5719 5717
5672 5674 5677 5680 5683 5686 5689 5692 5696 5699 5702 5705 5708 5711 5714 5716 5718 5719 5721 5722 5723 5724 5725 5725 5726 5726 5726 5726 5725 5725 5724 5723 5722 5721 5720 5719 5718 5717 5716 5715 5713 5712 5710 5709
5668 5670 5673 5675 5678 5681 5684 5687 5690 5693 5696 5699 5702 5705 5707 5709 5710 5712 5713 5714 5715 5716 5717 5717 5717 5717 5718 5718 5717 5716 5715 5715 5714 5713 5712 5711 5710 5709 5707 5706 5704 5703 5701 5700
5665 5667 5670 5672 5675 5678 5681 5683 5686 5689 5692 5694 5696 5699 5700 5702 5704 5705 5706 5707 5707 5708 5709 5709 5709 5709 5709 5709 5709 5708 5707 5706 5705 5704 5703 5702 5701 5700 5698 5697 5695 5694 5692 5690
5663 5665 5668 5670 5673 5676 5678 5681 5683 5686 5688 5690 5692 5693 5695 5696 5698 5699 5699 5700 5701 5701 5702 5702 5702 5702 5702 5701 5701 5700 5699 5698 5697 5696 5695 5694 5692 5691 5690 5688 5687 5685 5683 5681
5662 5665 5667 5669 5672 5674 5676 5679 5681 5683 5684 5686 5687 5689 5690 5691 5692 5692 5693 5694 5694 5695 5695 5695 5695 5695 5694 5694 5693 5692 5691 5690 5689 5688 5686 5685 5684 5682 5681 5679 5677 5675 5673 5671